Location: Newark
(41.0400°S, 62.7845°W)
Time: 05:53:54
(UTC+00:00)

X-37B - Visible Passes

Search period start: 23 October 2021 00:00
Search period end: 02 November 2021 00:00
Orbit: 342 x 346 km, 45.0° (Epoch: 22 October)

Date Brightness Start Highest point End Pass type
(mag) Time Alt. Az. Time Alt. Az. Time Alt. Az.
23 Oct 0.3 07:24:30 83° E 07:24:30 83° E 07:27:23 10° ESE visible
24 Oct 1.1 07:46:35 28° WSW 07:47:47 48° SSW 07:50:42 10° ESE visible
25 Oct 3.1 06:37:16 20° ESE 06:37:16 20° ESE 06:38:22 10° ESE visible
25 Oct 1.7 08:08:39 11° WSW 08:11:16 36° S 08:14:04 10° ESE visible
26 Oct 1.7 06:59:20 39° SSE 06:59:20 39° SSE 07:01:40 10° ESE visible
26 Oct 1.7 08:31:58 10° WSW 08:34:46 37° S 08:37:36 10° ESE visible
27 Oct 1.7 07:21:24 28° SW 07:22:15 35° S 07:25:03 10° ESE visible
28 Oct 3.7 06:12:09 14° ESE 06:12:09 14° ESE 06:12:38 10° ESE visible
28 Oct 1.7 07:43:32 14° WSW 07:45:47 38° S 07:48:35 10° ESE visible
29 Oct 2.7 06:34:20 26° SE 06:34:20 26° SE 06:36:02 10° ESE visible
29 Oct 1.0 08:06:17 10° WSW 08:09:14 57° SSE 08:12:10 10° E visible
30 Oct 1.6 06:56:38 38° S 06:56:46 39° S 06:59:36 10° E visible
30 Oct 0.4 08:29:37 10° WSW 08:32:34 66° NNW 08:35:30 10° ENE visible
31 Oct 0.8 07:19:05 32° SW 07:20:12 61° SSE 07:23:09 10° E visible
01 Nov 3.7 06:10:21 12° E 06:10:21 12° E 06:10:35 10° E visible
01 Nov 0.4 07:41:47 21° W 07:43:32 60° NNW 07:46:27 10° NE visible
